Location: TAAA CAC
(31.8680°N, 109.5150°W)
Time: 22:45:22
(UTC-07:00)

Hubble Space Telescope - Pass Details

Date: 02 March 2024
Orbit: 513 x 517 km, 28.5° (Epoch: 21 April)

Event Time Altitude Azimuth Distance (km) Brightness Sun altitude
Rises 18:49:25 0° 267° (W) 2,625 7.0 -7.6°
Reaches altitude 10° 18:51:43 10° 261° (W) 1,739 5.1 -8.1°
Maximum altitude 18:55:34 45° 188° (S) 706 1.5 -8.9°
Enters shadow 18:59:22 10° 115° (ESE) 1,721 2.8 -9.7°
